Location: Bourg-d�Oueil
(42.8588°N, 0.4991°E)
Time: 18:06:45
(UTC+00:00)

Cosmos 1674 - Pass Details

Date: 16 June 2021
Orbit: 494 x 514 km, 82.5° (Epoch: 30 July)

Event Time Altitude Azimuth Distance (km) Brightness Sun altitude
Exits shadow 20:22:09 - 128° (SE) 1,765 4.7 -7.1°
Reaches altitude 10° 20:22:24 10° 125° (SE) 1,698 4.6 -7.2°
Maximum altitude 20:24:41 16° 87° (E) 1,375 4.4 -7.5°
Drops below altitude 10° 20:26:59 10° 49° (NE) 1,702 5.3 -7.8°
Sets 20:29:44 0° 27° (NNE) 2,589 6.5 -8.1°
